Date,TemperatureHighF,TemperatureAvgF,TemperatureLowF,DewpointHighF,DewpointAvgF,DewpointLowF,HumidityHigh,HumidityAvg,HumidityLow,PressureMaxIn,PressureMinIn,WindSpeedMaxMPH,WindSpeedAvgMPH,GustSpeedMaxMPH,PrecipitationSumIn
2013-1-1,27,21,18,12,8,5,69,57,46,30.02,29.94,17,6,17,0.00
2013-1-2,26,18,6,19,8,-4,81,66,56,30.23,29.91,15,6,15,0.00
2013-1-3,28,17,6,22,8,-7,80,67,56,30.22,29.93,15,4,15,0.00
2013-1-4,40,30,24,24,20,14,75,65,53,29.95,29.83,20,6,20,0.01
2013-1-5,34,31,26,22,20,17,70,63,55,30.27,30.08,14,2,14,0.00
2013-1-6,38,33,27,29,26,19,87,76,66,30.08,29.86,12,4,12,0.01
2013-1-7,33,26,20,28,18,13,83,72,58,30.36,30.03,13,4,13,0.00
2013-1-8,47,29,24,24,18,14,75,63,39,30.26,30.12,13,6,13,0.00
2013-1-9,39,38,37,29,27,25,72,66,58,30.25,30.15,29,12,29,0.00
2013-1-10,48,35,29,32,25,21,77,66,53,30.56,30.25,26,6,27,0.00
2013-1-11,39,36,29,34,30,22,87,78,64,30.44,29.90,15,5,15,0.04
2013-1-12,51,44,39,45,40,34,92,85,74,30.00,29.94,16,6,16,0.00
2013-1-13,59,54,50,50,48,46,84,78,69,29.87,29.75,17,6,18,0.01
2013-1-14,51,36,29,46,28,17,94,73,58,30.36,29.72,26,6,27,0.01
2013-1-15,36,29,26,25,19,16,76,65,50,30.33,30.17,10,3,10,0.00
2013-1-16,36,30,26,29,23,19,87,75,61,30.18,29.75,13,4,13,0.00
2013-1-17,52,26,18,25,13,4,73,58,46,30.17,29.81,18,7,18,0.00
2013-1-18,38,20,15,19,6,-3,78,54,29,30.38,30.10,14,5,14,0.04
2013-1-19,53,41,24,29,23,6,56,48,37,30.11,29.60,15,5,15,0.00
2013-1-20,47,33,20,36,20,10,84,61,42,30.11,29.40,32,10,32,0.02
2013-1-21,28,21,17,15,10,4,81,62,47,30.02,29.82,16,4,16,0.00
2013-1-22,28,15,10,7,-2,-12,70,47,28,30.13,29.83,23,8,23,0.00
2013-1-23,16,8,0,3,-4,-12,72,60,51,30.18,30.08,12,3,12,0.00
2013-1-24,21,10,-3,9,-3,-15,67,55,48,30.43,30.05,21,6,21,0.00
2013-1-25,21,14,8,5,2,-2,68,58,43,30.43,30.06,20,4,20,0.00
2013-1-26,27,15,7,15,5,-2,79,65,45,30.35,30.06,6,2,6,0.00
2013-1-27,39,24,16,17,10,6,79,57,37,30.51,30.33,13,4,13,0.01
2013-1-28,38,31,21,37,24,9,96,78,57,30.36,29.81,14,5,14,0.20
2013-1-29,49,39,32,49,38,30,98,94,87,30.03,29.75,12,3,12,0.28
2013-1-30,62,56,49,55,51,47,98,84,72,29.76,29.05,23,9,23,0.09
2013-1-31,55,35,25,53,24,10,96,64,45,29.63,28.97,35,11,60,0.18
2013-2-1,28,23,20,18,13,8,82,66,50,30.14,29.62,26,11,26,0.00
2013-2-2,24,19,14,13,7,2,74,60,45,30.14,29.94,15,5,15,0.00
2013-2-3,32,21,10,19,11,2,78,67,43,29.95,29.75,15,3,15,0.00
2013-2-4,26,20,17,19,12,6,81,70,58,29.91,29.78,15,5,15,0.00
2013-2-5,32,22,14,14,8,2,79,56,35,29.91,29.81,11,4,11,0.01
2013-2-6,36,26,19,24,12,5,82,57,31,30.36,29.81,25,8,25,0.00
2013-2-7,33,23,13,16,6,-2,70,48,33,30.40,30.09,15,6,15,0.00
2013-2-8,33,27,22,27,20,12,92,76,53,30.10,29.76,24,9,24,0.00
2013-2-9,27,21,16,23,17,10,87,83,78,30.38,29.98,23,7,23,0.00
2013-2-10,38,25,11,23,13,5,81,63,41,30.38,29.97,18,6,18,0.00
2013-2-11,54,40,35,37,28,15,82,62,42,29.99,29.55,23,9,23,0.04
2013-2-12,39,35,32,30,26,23,85,70,57,29.95,29.68,22,7,22,0.01
2013-2-13,54,34,27,29,22,18,78,63,30,29.89,29.71,10,2,11,0.00
2013-2-14,48,35,27,33,26,20,89,69,42,29.89,29.75,13,4,13,0.11
2013-2-15,53,37,28,34,25,14,89,64,32,30.03,29.74,20,6,20,0.11
2013-2-16,40,27,19,20,14,5,75,57,42,30.03,29.89,15,5,15,0.00
2013-2-17,27,19,16,12,6,3,68,57,42,30.12,29.86,27,11,27,0.00
2013-2-18,45,24,15,19,7,2,66,50,25,30.22,29.94,21,7,21,0.01
2013-2-19,41,34,28,36,22,9,88,62,43,29.95,29.52,21,6,21,0.12
2013-2-20,34,26,21,17,14,10,80,60,43,29.99,29.72,25,3,25,0.00
2013-2-21,25,21,15,18,13,7,80,71,61,30.39,29.95,27,10,27,0.00
2013-2-22,36,27,17,28,18,10,84,68,54,30.37,30.01,20,6,20,0.00
2013-2-23,42,37,34,34,29,22,85,72,62,30.03,29.84,23,5,23,0.00
2013-2-24,38,33,29,29,25,22,85,72,59,30.01,29.82,60,4,60,0.02
2013-2-25,47,37,31,32,29,25,85,73,54,30.25,30.00,14,4,14,0.01
2013-2-26,49,37,26,30,25,21,83,63,37,30.23,29.88,18,6,18,0.00
2013-2-27,39,35,33,36,32,29,93,88,77,29.88,29.53,23,6,23,0.54
2013-2-28,45,37,33,38,32,30,96,84,62,29.68,29.49,10,3,10,0.20
2013-3-1,35,33,29,31,26,22,86,76,65,29.90,29.68,60,7,60,0.00
2013-3-2,29,27,25,23,18,16,77,69,63,29.89,29.83,15,5,15,0.00
2013-3-3,29,26,23,20,16,14,78,67,57,29.85,29.80,15,6,15,0.00
2013-3-4,32,29,26,23,20,18,72,69,64,30.00,29.82,24,11,24,0.00
2013-3-5,36,30,22,24,20,16,82,67,54,30.07,29.97,15,4,16,0.00
2013-3-6,45,35,25,35,28,18,85,76,63,30.13,29.94,19,-12,19,0.00
2013-3-7,42,36,33,33,28,22,87,75,57,30.26,30.11,15,6,15,0.00
2013-3-8,46,36,29,28,25,22,85,67,46,30.37,30.22,15,5,15,0.00
2013-3-9,49,36,27,37,29,22,89,77,60,30.41,30.24,8,3,8,0.00
2013-3-10,65,48,32,31,27,22,71,46,22,30.25,29.98,16,7,17,0.00
2013-3-11,57,52,49,46,33,26,73,48,38,30.00,29.68,23,9,23,0.00
2013-3-12,56,43,36,50,38,29,99,85,70,29.90,29.67,21,4,21,0.32
2013-3-13,46,35,27,36,28,19,92,75,51,29.90,29.79,17,5,17,0.05
2013-3-14,38,28,21,23,16,11,90,61,42,30.00,29.86,33,16,33,0.00
2013-3-15,43,34,25,34,23,13,85,66,55,29.99,29.65,26,8,26,0.01
2013-3-16,32,26,19,22,14,8,75,59,52,29.95,29.81,14,5,17,0.00
2013-3-17,39,29,19,21,13,6,79,53,31,30.33,29.93,25,6,25,0.00
2013-3-18,37,27,18,29,15,6,95,63,32,30.33,29.78,23,7,23,0.00
2013-3-19,47,36,30,37,30,18,96,82,48,30.43,29.66,23,7,23,0.13
2013-3-20,41,31,25,25,20,15,78,65,43,29.81,29.75,18,5,65,0.00
2013-3-21,43,30,20,26,15,5,87,57,26,29.79,29.67,16,5,16,0.00
2013-3-22,37,32,27,29,24,20,89,74,53,29.88,29.65,21,8,21,0.01
2013-3-23,49,37,31,32,27,22,89,68,47,29.97,29.83,21,9,21,0.05
2013-3-24,47,38,32,29,26,21,73,61,44,29.95,29.73,17,6,17,0.00
2013-3-25,44,37,33,33,28,22,82,70,61,29.73,29.59,16,7,16,0.00
2013-3-26,49,39,32,37,32,28,91,75,56,29.90,29.67,9,3,9,0.00
2013-3-27,51,40,33,38,32,26,87,73,56,30.03,29.85,16,6,16,0.00
2013-3-28,52,41,35,40,34,29,91,78,58,30.17,29.99,14,5,14,0.00
2013-3-29,50,41,34,38,33,28,83,74,57,30.17,30.11,12,4,12,0.00
2013-3-30,95,42,33,38,29,19,77,62,47,30.17,30.05,12,4,12,0.00
2013-3-31,60,45,35,45,33,20,99,66,34,30.05,29.59,23,6,23,0.19
2013-4-1,44,39,29,42,31,18,99,77,44,29.90,29.52,27,9,27,0.08
2013-4-2,42,32,26,29,22,16,89,65,44,30.06,29.87,32,11,32,0.00
2013-4-3,44,35,31,26,21,17,71,57,44,30.33,30.03,25,11,25,0.00
2013-4-4,62,41,25,32,22,16,69,49,22,30.32,29.88,15,4,15,0.00
2013-4-5,51,41,33,38,30,19,90,64,52,30.10,29.84,21,0,21,0.00
2013-4-6,77,38,31,26,20,14,70,49,31,30.33,30.05,17,6,17,0.00
2013-4-7,76,52,40,46,31,18,97,49,24,30.05,29.69,27,9,27,0.00
2013-4-8,53,44,37,47,40,36,99,87,62,30.12,29.73,12,4,12,0.01
2013-4-9,57,47,42,52,44,41,99,91,71,30.09,29.72,17,4,17,0.48
2013-4-10,46,42,40,46,42,39,99,99,97,30.09,29.85,13,4,13,0.48
2013-4-11,40,37,34,39,34,10,99,89,68,30.18,29.94,19,9,19,0.26
2013-4-12,50,41,35,50,39,32,99,91,77,29.98,29.53,24,9,24,0.70
2013-4-13,51,44,40,42,36,31,85,74,50,29.92,29.75,17,4,17,0.00
2013-4-14,50,42,34,37,33,27,91,72,56,30.19,29.91,15,4,15,0.04
2013-4-15,78,56,34,51,39,26,78,56,35,30.18,30.02,22,8,22,0.00
2013-4-16,66,55,42,59,50,39,99,83,66,30.21,29.95,23,7,23,0.20
2013-4-17,55,45,37,42,38,27,98,77,51,30.35,30.20,9,3,9,0.00
2013-4-18,79,60,42,60,50,37,99,70,42,30.25,29.73,28,10,28,0.07
2013-4-19,79,60,43,63,53,34,98,77,49,29.76,29.35,27,10,27,0.11
2013-4-20,50,41,34,41,31,24,87,67,54,30.39,29.72,27,10,27,0.02
2013-4-21,48,38,32,30,25,13,77,58,38,30.68,30.20,17,5,17,0.00
2013-4-22,69,48,29,32,27,19,87,50,15,30.60,30.36,17,5,17,0.00
2013-4-23,69,54,40,41,33,26,64,47,25,30.37,29.97,19,7,19,0.00
2013-4-24,73,55,42,57,46,38,99,74,45,29.97,29.58,21,8,21,0.08
2013-4-25,55,46,38,44,38,34,99,75,58,30.28,29.94,21,5,21,0.06
2013-4-26,57,46,37,45,39,32,99,78,51,30.48,30.27,11,3,11,0.01
2013-4-27,65,49,36,48,39,31,90,71,37,30.42,30.21,10,0,10,0.00
2013-4-28,62,50,44,44,40,38,81,70,49,30.22,30.15,10,3,10,0.00
2013-4-29,31,31,31,17,17,17,56,56,56,30.02,29.75,3,3,0,0.00
2013-4-30,80,70,38,58,55,20,76,59,44,30.23,29.97,21,6,21,1.89
2013-5-1,84,64,56,54,45,19,84,55,17,30.34,30.07,17,4,18,0.00
2013-5-2,81,64,55,50,42,35,65,45,22,30.43,30.24,11,4,11,0.00
2013-5-3,82,65,53,52,45,33,82,51,26,30.32,30.21,14,4,14,0.00
2013-5-4,76,61,50,51,44,23,72,55,33,30.31,30.14,12,4,12,0.00
2013-5-5,80,61,48,53,48,23,91,64,33,30.20,29.66,11,-1,11,0.00
2013-5-6,77,60,50,54,45,35,88,59,27,30.17,29.76,13,4,13,0.00
2013-5-7,108,64,53,61,54,46,91,70,49,30.12,30.00,8,3,8,0.00
2013-5-8,74,63,55,65,57,36,99,81,64,30.06,29.89,11,4,11,0.00
2013-5-9,75,61,52,61,56,34,99,86,58,30.03,29.85,12,3,12,0.00
2013-5-10,78,64,54,65,59,47,99,85,52,29.94,29.59,15,3,15,0.46
2013-5-11,60,56,50,60,55,33,99,96,76,29.83,29.63,17,4,17,0.17
2013-7-19,99,85,70,77,73,69,98,71,45,29.87,29.73,29,4,29,0.14
2013-7-20,87,75,68,75,69,63,99,84,48,29.89,29.69,12,-1,12,0.33
2013-7-21,79,72,63,68,62,58,92,72,53,30.03,29.88,15,4,15,0.00
2013-7-22,84,73,60,69,65,59,97,77,55,30.00,29.78,9,3,9,0.00
2013-7-23,89,78,70,75,71,63,99,81,57,29.79,29.61,16,2,16,0.01
2013-7-24,74,66,54,64,57,52,97,74,49,30.04,29.68,16,4,16,0.00
2013-7-25,79,67,51,62,56,51,99,71,46,30.14,29.55,13,3,13,0.00
2013-7-26,83,70,54,67,58,53,99,70,42,30.12,30.01,9,2,10,0.00
2013-7-27,85,70,58,72,65,54,99,84,58,30.02,29.85,13,3,13,0.39
2013-7-28,79,70,61,74,66,59,99,88,62,29.97,29.81,11,-5,11,0.07
2013-7-29,81,66,57,64,60,57,99,85,48,30.12,29.96,8,2,8,0.00
2013-7-30,81,68,60,70,62,60,99,84,51,30.18,30.10,11,2,11,0.04
2013-7-31,86,71,58,68,62,57,99,76,46,30.15,29.94,8,2,8,0.00
2013-8-1,84,71,64,75,67,62,99,88,64,29.95,29.76,15,-1,15,0.31
2013-8-2,83,69,61,71,64,61,99,86,53,29.90,29.82,8,-2,9,0.11
2013-8-3,81,72,61,70,63,59,99,77,50,30.14,29.78,14,3,14,0.17
2013-8-4,78,70,66,64,60,52,88,70,53,30.01,29.88,17,5,17,0.00
2013-8-5,80,69,55,64,58,49,96,68,52,30.11,29.95,10,2,10,0.00
2013-8-6,84,69,56,66,61,55,99,79,43,30.06,30.00,8,3,8,0.00
2013-8-7,83,73,66,71,67,62,94,81,63,30.01,29.89,18,5,18,0.00
2013-8-8,86,75,67,75,71,67,99,89,65,29.97,29.58,8,2,8,0.12
2013-8-9,82,71,66,75,70,16,99,94,71,29.92,29.51,10,-2,10,0.18
2013-8-10,78,70,58,64,59,54,96,70,48,30.08,29.49,14,4,14,0.00
2013-8-11,80,67,53,65,59,52,99,77,47,30.13,30.03,8,2,8,0.00
2013-8-12,84,70,58,70,63,57,99,81,50,30.04,29.85,6,2,6,0.00
2013-8-13,81,69,63,73,64,52,99,85,63,29.86,29.72,21,4,21,0.24
2013-8-14,75,65,56,61,56,53,99,75,54,30.04,29.77,18,6,18,0.08
2013-8-15,82,68,52,61,57,51,99,71,45,30.12,29.90,12,3,12,0.00
2013-8-16,82,68,53,63,57,52,99,73,42,30.20,30.09,5,2,5,0.00
2013-8-17,59,58,56,58,57,55,99,97,94,30.24,30.19,4,1,4,0.00
2013-8-19,84,74,63,72,68,62,99,81,64,30.07,30.02,6,2,6,0.00
2013-8-20,90,74,62,71,66,61,99,79,47,30.13,30.04,7,-12,7,0.00
2013-8-21,93,75,61,73,67,61,99,79,44,30.16,23.02,9,-16,9,0.00
2013-8-22,93,74,64,79,70,63,99,89,54,30.04,29.88,11,2,11,0.45
2013-8-23,79,71,63,70,62,58,96,74,57,30.20,29.96,11,3,11,0.00
2013-8-24,81,68,56,64,58,54,99,74,42,30.37,29.82,6,2,6,0.00
2013-8-25,88,70,54,71,62,54,99,80,46,30.33,30.12,8,2,8,0.00
2013-8-26,85,71,65,76,69,64,99,95,72,30.14,29.91,8,2,8,0.26
2013-8-27,86,74,68,77,72,21,99,94,74,29.94,29.87,6,-13,178,0.01
2013-8-28,87,76,68,76,72,68,99,89,66,29.95,29.85,19,-12,19,0.00
2013-8-29,82,74,66,75,71,65,99,91,76,30.24,29.94,6,2,6,0.00
2013-8-30,93,75,63,75,69,8,99,84,11,30.01,29.77,8,2,8,0.01
2013-8-31,89,75,70,80,72,69,99,91,66,29.87,29.71,8,2,8,0.35
2013-9-1,83,75,68,73,71,68,99,87,67,29.86,29.73,15,-10,15,0.57
2013-9-2,88,73,68,78,70,64,99,92,69,29.78,29.64,19,-4,19,0.14
2013-9-3,75,66,63,65,62,60,94,85,66,29.90,29.75,13,3,13,0.00
2013-9-4,86,71,57,67,62,55,96,75,45,29.96,29.89,13,3,57,0.00
2013-9-5,76,66,59,61,50,42,87,58,39,30.19,29.94,15,4,15,0.00
2013-9-6,79,61,45,55,50,41,99,69,36,30.26,29.83,7,2,8,0.00
2013-9-7,68,60,52,65,58,51,98,93,71,30.07,29.85,9,1,9,0.27
2013-9-8,74,63,52,65,54,45,99,74,39,30.10,29.82,20,4,20,0.08
2013-9-9,80,63,48,62,54,48,99,77,42,30.13,29.96,16,3,16,0.00
2013-9-10,96,76,65,82,72,60,99,86,61,30.06,29.83,17,3,17,0.80
2013-9-11,99,82,73,82,76,70,99,83,53,30.03,29.89,10,2,11,0.00
2013-9-12,78,71,64,75,69,63,99,95,85,29.94,29.70,11,2,11,0.12
2013-9-13,67,59,54,65,55,48,99,88,79,29.96,29.70,14,5,14,0.06
2013-9-14,68,56,45,54,48,45,99,77,55,30.11,29.95,15,3,15,0.00
2013-9-15,71,58,45,59,53,45,99,84,59,30.12,30.03,16,2,16,0.00
2013-9-16,59,55,52,58,50,41,99,85,61,30.35,30.04,18,4,18,0.08
2013-9-17,68,54,41,50,45,40,96,75,44,30.46,30.12,7,2,11,0.00
2013-9-18,79,59,46,58,52,46,99,79,38,30.29,30.10,9,-19,9,0.00
2013-9-19,80,64,51,64,57,50,99,81,47,30.31,30.01,7,2,7,0.00
2013-9-20,85,70,56,68,61,56,99,77,49,30.02,29.80,50,4,50,0.00
2013-9-21,71,65,58,67,62,58,99,91,73,30.02,29.62,21,5,21,0.66
2013-9-22,66,57,54,58,48,42,99,74,51,29.99,29.66,21,6,21,0.00
2013-9-23,64,55,45,48,45,43,97,71,51,30.13,29.97,11,4,11,0.00
2013-9-24,68,54,42,54,47,41,99,81,53,30.10,29.91,15,3,15,0.00
2013-9-25,75,57,42,61,51,42,99,83,53,29.99,29.94,6,2,178,0.00
2013-9-26,72,59,45,62,53,44,99,82,62,30.14,29.76,13,3,13,0.00
2013-9-27,70,60,46,60,54,45,99,84,66,30.26,29.93,8,3,8,0.00
2013-9-28,78,61,49,61,54,49,99,81,48,30.30,30.18,11,3,21,0.00
2013-9-29,81,63,52,58,54,51,99,76,43,30.19,30.01,12,3,12,0.00
2013-9-30,79,65,54,66,59,52,98,82,54,30.02,29.72,8,2,9,0.00
2013-10-1,79,66,58,68,62,57,99,89,67,30.03,23.02,8,-2,8,0.00
2013-10-2,80,66,57,70,62,9,99,88,66,30.07,29.68,11,-1,11,0.00
2013-10-3,76,62,50,60,55,49,99,79,53,30.13,30.02,11,2,11,0.00
2013-10-4,69,62,58,64,60,56,99,93,82,30.10,29.89,10,2,10,0.17
2013-10-5,66,63,61,64,60,59,99,93,85,30.09,29.72,9,2,9,0.12
2013-10-6,76,67,60,72,65,59,99,95,84,30.03,29.76,24,4,24,0.12
2013-10-7,72,62,52,68,59,49,99,89,73,31.34,29.61,23,6,23,0.61
2013-10-8,70,56,46,56,49,45,99,79,47,31.34,27.26,15,3,15,0.00
2013-10-9,73,54,43,54,49,42,99,83,44,31.34,30.26,10,2,10,0.00
2013-10-10,67,54,44,54,49,44,99,86,58,31.34,30.11,8,2,21,0.00
2013-10-11,73,55,48,59,52,47,99,90,57,31.34,30.09,115,-51,115,0.00
2013-10-12,78,60,44,61,52,43,99,78,33,31.34,29.53,9,2,9,0.00
2013-10-13,77,63,53,59,56,52,98,80,51,31.34,30.21,17,4,17,0.05
2013-10-14,68,59,50,60,56,50,99,93,70,30.31,30.24,12,3,12,0.33
2013-10-15,75,58,47,59,54,47,99,87,55,30.28,29.96,8,3,8,0.00
2013-10-16,62,60,57,59,55,50,99,84,67,29.96,29.74,17,5,17,0.31
2013-10-17,69,58,48,58,54,48,99,87,64,29.86,29.63,11,-1,11,0.30
2013-10-18,67,54,48,53,48,43,99,82,48,29.89,29.67,16,4,16,0.01
2013-10-19,67,55,46,52,47,44,96,77,50,29.88,29.61,17,4,17,0.04
2013-10-20,65,50,-19,47,43,-20,97,79,43,29.97,29.70,15,4,15,0.01
2013-10-21,65,56,46,52,45,42,96,69,45,29.97,29.76,14,3,14,0.00
2013-10-22,59,50,39,52,41,29,99,73,34,29.82,29.70,60,5,60,0.08
2013-10-23,55,45,39,44,38,-12,99,79,10,29.80,29.65,21,0,21,2.34
2013-10-24,55,42,36,42,37,32,99,81,52,29.94,29.70,21,7,21,0.22
2013-10-25,56,45,39,43,38,-12,99,75,10,30.14,29.94,19,-2,19,0.09
2013-10-26,47,44,40,40,35,-12,98,72,56,30.08,29.75,16,5,16,0.01
2013-10-27,51,44,40,45,39,-12,96,83,10,30.03,29.75,19,5,19,0.19
2013-10-28,57,45,33,44,34,-12,86,68,44,30.37,29.98,22,4,22,0.00
2013-10-29,51,39,29,34,29,23,80,68,49,30.44,30.26,10,3,10,0.00
2013-10-30,61,45,37,46,40,-12,99,85,57,30.26,23.68,8,2,8,0.05
2013-10-31,61,54,43,60,53,40,99,94,86,30.09,29.40,17,5,17,0.47
2013-11-1,69,61,54,61,53,45,99,78,44,29.64,29.16,26,9,26,0.27
2013-11-5,57,52,49,39,36,32,65,55,40,30.42,30.32,60,6,60,0.00
2013-11-6,67,56,48,53,46,39,88,70,49,30.33,29.78,20,7,68,0.00
2013-11-7,58,47,38,55,43,35,99,87,70,29.94,29.74,23,8,23,0.01
2013-11-8,44,42,37,39,34,29,99,74,57,30.18,29.88,25,12,25,0.00
2013-11-9,48,43,37,37,34,30,94,70,52,30.19,29.74,15,4,15,0.00
2013-11-10,50,46,41,43,39,35,94,79,65,30.09,29.74,34,9,34,0.02
2013-11-11,47,41,34,39,35,19,97,79,52,30.12,29.88,24,9,25,0.00
2013-11-12,38,32,29,25,21,16,71,63,52,30.33,30.05,23,10,23,0.00
2013-11-13,39,30,26,24,16,13,62,56,51,30.36,30.31,20,7,21,0.00
2013-11-17,60,58,56,56,54,33,94,88,42,30.40,29.35,27,10,27,0.04
2013-11-18,59,49,39,57,39,30,98,70,52,29.81,29.34,23,9,23,0.01
2013-11-19,44,38,34,36,28,21,91,68,57,30.40,29.80,32,12,32,0.01
2013-11-20,42,33,25,24,18,14,70,54,37,30.60,30.40,11,5,11,0.00
2013-11-21,49,40,31,37,25,13,85,55,42,30.47,30.25,14,6,17,0.00
2013-11-22,47,43,37,47,42,31,99,96,77,30.25,29.94,26,5,26,0.00
2013-11-23,43,33,23,31,23,9,85,66,42,30.13,29.92,33,14,33,0.02
2013-11-24,29,24,21,17,12,7,75,61,46,30.32,30.05,27,12,27,0.00
2013-11-25,38,30,22,20,14,7,77,52,30,30.31,30.07,16,6,17,0.00
2013-11-26,39,35,33,32,27,13,98,76,42,30.12,23.03,11,2,11,0.00
2013-11-27,39,34,26,35,30,17,98,86,67,30.43,29.52,30,9,30,0.86
2013-11-28,35,27,24,21,15,-24,73,60,43,30.40,23.02,39,8,39,0.00
2013-11-29,37,26,17,24,15,7,83,64,38,30.71,30.39,17,4,17,0.04
2013-11-30,33,25,14,20,12,5,78,59,42,30.70,30.17,19,6,19,0.00
2013-12-1,42,36,32,33,26,19,92,70,55,30.17,29.94,14,5,14,0.01
2013-12-2,42,38,35,37,34,31,93,87,79,29.94,29.83,8,2,8,0.00
2013-12-3,47,36,30,36,30,26,89,79,59,30.01,29.87,7,-2,7,0.00
2013-12-4,49,38,30,39,33,-8,90,83,67,30.04,29.92,13,4,13,0.01
2013-12-5,59,52,40,52,46,35,90,81,73,29.98,29.72,22,8,22,0.01
2013-12-6,43,36,32,36,30,-16,93,78,63,30.21,29.97,15,5,15,0.20
2013-12-7,38,31,28,28,21,14,86,67,47,30.49,30.18,19,6,19,0.00
2013-12-8,36,28,22,22,14,10,81,56,36,30.53,30.22,15,4,15,0.00
2013-12-9,43,35,28,36,29,22,88,78,61,30.22,23.02,45,7,45,0.07
2013-12-10,36,28,22,27,15,6,75,59,43,29.98,29.86,18,6,18,0.00
2013-12-11,32,26,21,18,11,5,83,55,37,30.19,29.97,25,8,25,0.00
2013-12-12,29,20,15,16,7,0,83,57,34,30.26,29.95,19,5,19,0.00
2013-12-13,25,21,12,19,9,2,80,60,48,30.36,29.92,23,7,23,0.00
2013-12-14,16,14,8,10,4,-7,76,65,48,30.40,29.73,17,8,17,0.00
2013-12-15,32,22,16,24,16,9,85,75,57,29.75,29.53,17,5,17,0.00
2013-12-16,24,19,11,17,12,4,81,73,57,30.14,29.74,16,4,16,0.00
2013-12-17,29,18,6,23,11,-3,81,73,66,30.23,29.83,10,3,10,0.00
2013-12-18,39,30,23,26,20,16,84,69,50,30.02,29.86,12,3,12,0.04
2013-12-19,47,36,27,33,26,15,81,68,45,30.03,29.85,13,3,13,0.13
2013-12-20,42,39,35,40,35,30,98,88,74,29.99,29.76,8,-8,8,0.20
2013-12-21,50,40,32,50,40,32,99,98,95,29.87,29.70,17,4,17,0.64
2013-12-22,38,35,32,38,34,32,99,97,93,29.95,29.53,15,3,15,0.24
2013-12-23,39,38,38,39,38,38,99,99,99,29.97,29.92,4,1,4,0.00
2013-12-31,28,19,15,10,2,-2,52,48,41,30.16,29.99,22,9,22,0.00
2014-1-1,23,18,13,14,6,1,75,60,48,30.34,30.15,21,5,21,0.01
2014-1-2,17,13,8,10,6,0,76,73,66,30.26,29.88,28,12,28,0.00